RH
80 72 76 78 77 72 70 71 92 71 74 87 93 100 76 58 62 52 56 60 64 66 61 72 55 58 53 58 59 84 65 87 95 74 49 57 77 92 89 100 99 97 100 97
80 68 67 69 81 79 77 86 89 77 70 92 100 88 86 68 70 66 66 63 54 50 63 80 78 70 57 60 60 69 63 94 88 57 61 67 81 79 82 94 100 100 97 88
76 67 64 71 74 80 78 81 98 70 84 87 93 98 88 81 83 84 77 75 73 75 72 54 80 83 67 62 68 52 48 73 66 63 68 78 83 66 67 98 100 97 94 85
68 66 61 60 67 72 81 92 93 95 98 96 84 82 77 85 91 92 74 82 90 96 93 72 80 64 83 68 62 63 54 64 78 72 71 70 72 72 66 77 91 100 88 88
62 61 60 67 76 74 89 97 97 94 96 80 83 81 81 82 82 66 65 95 91 78 94 77 95 85 76 95 63 80 81 91 80 71 69 63 57 43 54 57 74 81 85 84
69 64 67 71 72 79 98 97 97 92 84 81 78 74 65 69 66 64 64 63 76 85 80 82 79 81 96 94 82 79 75 85 81 71 70 68 52 58 48 58 74 82 89 68
71 70 75 81 71 75 78 83 97 96 92 81 72 70 66 74 73 78 62 62 81 80 80 80 75 84 95 90 80 77 84 77 83 89 68 74 38 36 51 71 69 71 70 76
65 60 59 59 60 75 81 84 96 91 99 80 71 74 82 66 65 86 78 77 74 76 99 99 93 87 77 64 72 74 72 79 87 82 87 60 49 57 68 67 63 63 73 72
60 61 63 65 67 77 90 86 100 100 97 89 67 68 66 91 87 91 77 61 70 98 100 99 92 87 60 64 61 77 81 72 77 96 88 83 50 61 66 62 81 83 76 76
83 82 87 79 80 85 88 92 88 100 95 81 74 82 80 72 93 98 85 81 93 83 98 97 91 81 64 60 62 91 95 95 94 91 92 75 59 79 72 82 80 87 87 80
50 48 50 45 58 74 94 85 92 91 88 80 85 88 85 80 91 96 72 79 88 94 97 95 93 94 77 75 60 78 80 93 98 87 92 88 86 76 69 91 94 90 92 95
66 77 78 78 77 82 97 100 100 97 99 84 83 82 66 66 77 84 77 83 83 99 98 95 95 97 96 95 89 92 84 80 87 79 78 87 88 89 93 98 100 100 92 98
59 73 83 89 85 78 85 98 99 99 99 93 92 64 44 51 55 64 89 79 78 95 98 99 99 96 100 94 95 92 86 91 100 100 91 87 90 97 100 98 97 100 100 100
74 80 83 83 86 83 90 99 97 100 97 96 71 62 61 63 60 57 66 68 82 89 94 97 99 99 93 83 97 94 99 100 96 98 98 99 100 99 99 100 99 99 98 98
86 85 81 81 82 91 98 99 97 97 94 90 83 64 50 53 57 66 65 72 81 82 83 99 94 84 97 98 98 100 98 100 97 100 98 99 98 99 99 97 97 98 96 94
84 90 92 95 98 99 99 97 99 99 98 96 94 59 49 55 63 58 65 61 75 78 99 92 79 91 99 99 98 99 98 99 100 97 99 98 97 97 98 97 97 97 96 97
98 98 99 96 100 100 99 95 79 95 98 90 98 95 70 75 77 77 76 77 83 82 75 82 81 82 98 99 97 99 98 98 98 99 100 98 98 98 97 94 95 96 96 98
100 99 99 99 100 99 98 76 74 99 91 88 91 91 87 84 87 89 90 91 86 91 78 92 98 83 99 97 97 97 97 98 97 95 94 95 98 96 95 94 93 92 98 98
99 100 99 97 97 97 99 95 99 96 78 99 92 96 89 93 99 95 100 100 96 86 99 98 88 98 96 97 97 99 100 100 100 96 93 95 93 98 97 96 96 96 100 100
100 98 94 87 99 95 99 95 94 83 72 92 98 86 99 95 98 97 97 96 97 92 89 93 97 97 99 100 100 96 89 83 95 100 99 98 99 98 100 98 100 100 100 100
98 91 98 100 94 87 95 98 98 87 95 99 96 94 97 86 98 99 99 94 92 84 98 98 98 97 96 98 100 94 90 90 93 98 96 97 97 98 100 100 100 94 93 93
70 72 98 100 95 90 80 93 90 96 84 88 97 92 91 84 97 99 100 98 99 97 98 97 98 95 100 97 96 93 93 95 94 98 99 97 94 93 92 95 96 96 95 96
62 58 94 89 94 97 94 99 78 89 85 95 99 100 94 100 99 100 97 98 97 99 96 96 98 96 100 98 96 91 96 98 97 95 94 93 92 93 93 95 98 97 95 99
86 78 99 97 94 86 83 93 96 94 100 100 100 100 98 83 90 95 81 97 96 95 96 92 98 100 96 100 93 89 91 95 96 98 98 96 95 95 97 96 97 93 91 94
75 77 99 96 92 99 100 98 99 100 100 100 99 93 79 87 77 89 88 93 96 96 95 96 100 97 94 92 90 91 91 91 91 95 95 95 95 93 93 96 96 95 88 70
79 90 95 98 93 97 97 99 100 100 99 96 82 98 88 95 95 86 96 95 96 92 99 100 98 92 90 91 91 90 89 88 88 90 90 92 93 92 91 86 69 55 51 52
84 99 100 100 98 100 98 98 98 99 99 100 92 88 84 85 94 96 98 96 95 99 99 94 86 88 92 93 93 93 92 92 91 90 91 91 91 69 55 53 59 64 68 70
Wind_Speed
4 3 2 2 3 6 6 4 3 1 4 2 1 1 3 2 5 17 5 5 6 7 6 3 3 6 7 3 2 1 4 2 3 8 4 7 3 5 5 3 2 3 1 3
4 4 4 4 3 4 4 3 3 2 2 2 2 2 3 6 4 6 3 4 3 7 6 5 2 7 15 23 3 4 7 3 2 2 3 6 4 1 2 3 1 3 2 2
6 5 5 4 4 4 1 2 2 1 2 1 3 3 3 4 3 4 7 8 6 8 5 8 4 2 6 16 18 2 4 2 2 2 3 2 4 8 6 2 2 2 3 1
7 6 4 5 5 4 3 3 2 1 2 1 1 3 3 6 5 3 7 3 2 5 3 5 6 7 5 9 23 3 3 2 2 3 3 1 4 8 11 8 9 4 3 5
8 6 5 5 4 6 7 4 3 2 2 4 2 4 3 5 4 3 6 4 11 9 5 6 4 5 3 7 6 7 4 2 0 3 2 6 5 10 9 11 12 10 13 12
9 8 7 7 8 8 5 4 7 4 1 0 1 2 3 4 10 8 10 12 14 8 10 10 19 13 13 13 6 3 1 4 2 2 4 7 6 4 5 5 5 6 6 2
12 11 10 10 11 10 9 8 5 3 1 3 3 4 7 9 9 9 22 18 9 4 21 27 16 18 16 15 10 5 2 3 2 2 3 1 5 10 4 1 4 10 7 3
14 13 13 13 13 13 13 13 10 5 2 5 6 10 7 11 18 5 9 11 16 23 11 3 4 3 3 5 7 7 4 3 2 2 2 5 8 3 4 3 9 3 3 5
12 10 10 11 12 13 14 14 12 7 2 5 15 6 6 3 4 5 5 20 18 10 3 4 5 4 3 3 2 6 5 4 2 1 2 4 5 4 14 5 5 7 6 5
15 15 14 14 14 13 15 15 16 10 6 10 9 4 4 3 3 3 6 15 10 10 3 2 1 2 1 2 3 3 3 2 5 4 3 6 4 9 9 1 4 9 14 12
19 18 17 16 15 15 17 18 18 18 6 13 13 7 8 8 3 2 8 9 4 4 3 3 3 2 3 2 1 3 4 4 3 3 4 7 13 7 0 1 8 16 24 17
17 17 17 17 17 18 18 21 19 20 17 9 8 14 22 25 22 14 5 6 5 4 3 3 3 2 3 4 2 2 1 3 3 5 2 5 9 6 10 11 11 13 22 20
19 19 19 19 20 21 23 25 22 20 18 21 24 26 23 25 27 16 7 4 5 4 9 4 2 2 2 2 2 4 4 2 3 1 5 8 12 12 13 17 21 17 19 20
19 20 22 23 22 23 24 29 29 26 6 4 10 7 11 8 10 19 27 24 8 9 13 5 2 2 1 2 3 2 2 6 5 2 5 13 16 13 13 16 19 19 20 18
21 20 21 21 25 31 29 30 38 32 21 4 6 12 10 11 15 15 16 23 23 14 4 3 2 3 3 2 2 2 5 3 2 2 7 7 10 11 12 17 18 16 18 18
17 20 22 24 25 27 33 11 32 36 33 3 2 6 4 5 5 15 12 13 16 10 4 3 5 3 2 2 1 5 12 10 5 3 16 19 16 16 15 17 16 15 16 15
18 18 18 15 18 18 19 8 9 38 27 4 3 5 2 2 5 7 11 11 7 7 4 4 4 5 5 1 1 7 10 13 12 5 3 11 11 10 14 14 14 12 13 14
15 15 14 10 15 17 12 8 17 33 14 5 2 4 5 5 3 2 5 6 9 7 5 2 3 3 3 1 4 6 8 7 14 16 15 16 12 11 12 10 8 8 10 10
14 20 22 25 13 5 10 20 32 19 3 8 4 3 3 3 4 5 6 6 3 5 3 3 3 0 2 3 4 8 10 7 5 5 8 8 8 9 8 7 8 9 11 11
27 34 8 6 12 27 32 16 6 6 4 5 4 7 2 7 4 4 4 2 2 3 5 5 1 1 5 4 4 4 6 7 3 1 4 5 6 6 7 8 8 9 11 12
23 5 4 33 27 4 4 5 5 6 3 6 7 14 4 9 3 3 10 4 4 3 3 2 2 2 3 4 4 5 6 7 7 5 3 2 2 4 6 8 8 9 9 11
11 16 22 14 3 2 3 3 3 4 4 5 4 5 9 5 6 4 5 3 2 2 7 2 1 1 7 4 3 4 5 4 4 5 5 5 4 4 4 7 9 10 11 12
31 11 5 6 3 3 4 6 3 3 3 5 5 2 5 4 4 1 1 1 2 4 2 2 1 9 7 4 3 4 4 4 4 5 6 6 7 10 12 14 14 13 14 13
5 5 6 4 4 5 4 3 3 1 2 5 9 4 1 0 2 1 0 1 1 2 0 3 1 9 6 2 1 3 3 4 6 9 11 13 14 16 16 15 14 11 11 11
4 4 4 4 1 2 3 4 4 2 2 5 6 4 2 1 1 1 2 2 1 2 2 2 9 9 5 3 4 5 8 9 11 12 13 14 13 13 14 13 11 9 9 8
3 4 3 3 3 2 3 3 3 1 3 4 2 2 3 1 2 3 2 3 3 3 2 9 11 8 8 8 9 10 12 12 13 13 13 13 11 10 9 8 6 6 6 6
3 3 8 7 7 5 3 2 1 2 2 1 3 4 1 1 3 1 0 4 3 5 13 11 9 11 12 12 12 13 14 14 13 12 11 9 8 7 6 5 5 5 5 6
Wind_Direction
254 266 276 310 309 332 2 24 36 164 35 21 155 154 253 292 320 307 311 300 257 247 280 301 293 313 323 335 297 209 346 75 259 239 247 182 145 155 163 248 206 190 221 292
268 261 249 251 266 320 3 57 310 286 267 114 284 263 258 267 265 263 278 284 303 310 324 313 246 346 332 329 320 212 193 209 281 337 50 26 32 338 165 177 267 244 190 229
246 250 232 227 242 286 58 139 355 31 121 94 116 344 297 298 240 287 245 272 268 291 277 235 271 283 310 327 308 231 127 105 133 167 214 230 274 290 275 316 259 328 235 191
228 231 225 230 233 246 179 187 218 162 279 249 292 210 264 294 1 309 299 258 334 314 281 264 206 254 342 295 289 312 96 122 318 263 265 219 264 268 286 251 242 273 338 312
218 221 218 230 225 219 200 162 163 179 252 286 25 352 305 316 329 293 328 321 311 309 257 258 300 350 195 252 295 352 349 134 127 293 8 337 294 294 269 258 241 254 253 268
230 227 227 230 226 218 185 217 244 199 236 151 56 248 273 311 333 299 220 317 312 296 258 292 269 260 266 267 285 241 241 143 147 263 4 327 309 164 318 282 218 221 230 254
239 243 241 231 234 237 228 219 214 147 226 206 225 257 287 298 300 279 288 295 285 286 300 303 278 257 250 246 257 220 187 133 124 222 1 274 256 312 179 239 338 244 293 305
245 246 244 240 235 237 231 228 207 187 221 236 270 267 268 309 307 281 285 305 308 306 287 253 249 253 261 228 227 228 181 121 105 134 191 301 309 29 352 330 297 285 282 307
235 235 233 233 230 228 230 231 219 218 167 240 243 277 290 273 292 310 277 326 330 337 256 222 205 177 171 227 166 26 76 86 107 122 192 241 241 349 349 311 277 355 330 283
242 241 239 236 231 224 226 227 227 213 249 259 246 209 229 255 263 263 307 334 331 356 310 289 113 146 198 194 158 169 109 104 199 215 241 282 320 306 310 81 287 349 318 223
248 244 240 238 231 224 229 234 227 221 231 258 247 246 232 233 240 180 329 342 2 306 319 344 356 17 360 358 262 186 156 154 197 182 213 256 3 346 37 104 50 62 44 85
242 236 236 236 232 225 228 227 224 229 234 258 267 259 252 254 252 277 300 285 337 320 313 350 309 335 12 6 289 332 332 196 185 193 232 57 47 62 15 86 90 81 98 82
240 242 241 238 233 232 228 230 231 215 232 265 269 266 272 261 254 257 225 236 206 233 314 283 311 314 328 340 298 320 320 72 237 157 145 96 76 62 56 69 75 91 98 104
242 245 243 237 234 230 229 227 231 223 187 226 274 283 271 275 238 231 234 236 246 293 307 302 320 288 296 279 317 248 332 323 346 40 97 94 61 65 74 75 85 88 94 96
252 249 247 246 243 238 236 231 228 226 200 222 281 299 286 264 246 240 238 230 237 261 305 263 257 289 303 254 247 27 346 9 337 27 332 71 62 67 84 80 77 83 94 99
241 247 249 254 257 251 230 190 206 215 201 94 301 290 279 281 271 217 223 217 227 222 240 267 280 273 246 297 102 35 7 38 77 97 77 95 95 79 77 79 79 83 90 92
248 242 251 244 256 242 196 186 199 203 195 190 298 295 282 251 206 196 207 217 205 225 237 240 238 264 230 263 69 36 33 37 35 31 163 65 68 81 68 63 69 71 84 91
247 253 220 208 184 149 106 116 154 158 150 173 221 269 322 205 213 192 183 163 180 214 238 249 237 257 264 96 62 30 25 53 44 53 76 99 101 81 69 63 60 66 74 89
230 202 139 122 101 77 104 128 145 149 166 162 183 213 247 178 215 181 169 161 159 213 217 224 190 120 221 27 77 39 29 32 23 49 76 83 75 77 69 56 57 76 83 82
160 136 102 99 116 116 117 125 147 191 227 214 217 209 232 190 231 165 132 181 198 202 223 161 109 120 103 93 80 46 24 13 30 13 60 58 73 64 57 76 91 89 93 98
144 105 81 134 136 93 91 134 156 190 230 217 225 204 174 207 191 183 200 176 188 221 197 219 159 145 126 122 83 55 40 33 45 74 88 98 95 97 99 99 103 100 99 104
145 132 122 130 148 94 114 172 182 219 232 199 185 210 210 209 213 214 183 192 150 207 143 130 206 233 129 123 76 56 47 48 65 75 86 87 101 95 103 115 117 112 107 105
123 116 121 144 169 178 200 186 197 202 207 207 200 146 163 203 237 328 112 141 196 104 48 199 173 136 142 120 63 47 47 53 71 82 83 89 95 98 100 110 111 112 110 101
106 142 138 202 190 215 198 175 179 153 255 219 144 101 99 61 52 352 149 300 1 69 107 229 112 144 139 131 33 7 54 81 89 93 99 102 105 104 103 101 100 99 97 92
105 131 166 195 159 92 138 147 162 132 195 162 112 91 89 54 114 189 105 37 339 217 235 216 142 151 149 122 106 104 106 105 107 105 106 104 103 103 99 92 87 80 73 66
83 69 96 135 96 14 79 114 134 119 146 120 112 120 65 63 118 63 209 112 229 247 211 140 146 137 130 125 122 119 115 113 111 110 108 106 103 100 96 96 92 83 69 54
69 59 83 91 83 88 81 72 52 58 92 122 91 65 138 116 54 90 58 183 219 153 137 142 142 138 136 135 134 132 129 126 123 120 115 111 105 97 88 82 83 77 66 55